World > North America > United States > New York
Hourly regional weather for Hancock, New YorkHancock, New York Regional Hourly Weather

Hancock, New York Regional Weather

regional weather hancock, nyHOURLY REGIONAL WEATHER FOR HANCOCK, NY
Lat: 41.95N, Lon: 75.28W 
Web Search
Hancock Weather Warning NWS WEATHER ALERT FOR THE HANCOCK, NY AREA - WIND ADVISORY Issued: 343 PM EST Mon Dec 6 2021 Hancock Weather Warning  

If you are on your PC, you can easily pass this page to your phone by scanning the QR Code near the bottom with your camera.

Feedback


°F Click to change Hancock hourly weather to Imperial units.Click to change Hancock hourly weather to Metric units. °C
Hancock Weather Map
UTC Time: 12/6/2021, 23:31
Your Time:

Hancock, NY Regional Weather

Expires:202112070000;;023041
ASUS41 KALY 062310
RWRALY

NEW YORK STATE HOURLY WEATHER ROUNDUP
NATIONAL WEATHER SERVICE ALBANY NY
600 PM EST MON DEC 06 2021

NOTE: "FAIR" INDICATES FEW OR NO CLOUDS BELOW 12,000 FEET WITH NO
SIGNIFICANT WEATHER AND/OR NO OBSTRUCTIONS TO VISIBILITY.


NYZ032-033-038>043-046>054-057>066-NYZ062>081-082-084-070000-
EAST

  
CITY           SKY/WX    TMP DP  RH WIND       PRES   REMARKS
ALBANY         LGT RAIN  55  52  89 S10       29.51F                  
GLENS FALLS    LGT RAIN  52  50  93 SW10      29.46S FOG              
POUGHKEEPSIE   LGT RAIN  57  51  80 S12G17    29.57S                  
NEWBURGH       RAIN      59  54  82 SW12G18   29.57F                  
WHITE PLAINS   CLOUDY    54  51  90 S6        29.61F                  
ISLIP          CLOUDY    58  54  86 SW20G28   29.65S                  
NEW YORK CITY  CLOUDY    60  51  72 SW15G22   29.62F                  
CENTRAL PARK   CLOUDY    59  51  75 VRB6      29.64F                  
$$


SKY/WX - Weather  TMP - Temperature  DP - Dew Point  RH - Relative Humidity
WIND - Wind Direction/Speed PRES - Barometric Pressure VSB - Visibility
WCI - Wind Chill Index E13G22 Wind - East Wind 13 mph/Gusts of 22 mph